This is the latest recevied weather packets stored in our database for station/object N5LSN. If no packets are shown the sender has not sent any weather packets the latest 1 day(s).
| Time | Temp. | Humidity | Pressure | Rain* | Wind** | Luminosity | Snow |
|---|---|---|---|---|---|---|---|
| 1778046797 | 22.22° C | 99% | 1007.2 hPa | 0 mm | 1.34 m/s, 209° | 0 W/m² | - |
| 1778046494 | 22.22° C | 99% | 1007.2 hPa | 0 mm | 1.34 m/s, 182° | 0 W/m² | - |
| 1778046190 | 22.22° C | 99% | 1007.1 hPa | 0 mm | 3.13 m/s, 168° | 0 W/m² | - |
| 1778045886 | 22.22° C | 99% | 1007 hPa | 0 mm | 1.79 m/s, 211° | 0 W/m² | - |
| 1778045586 | 21.67° C | 99% | 1007.3 hPa | 0 mm | 1.34 m/s, 198° | 0 W/m² | - |
| 1778045283 | 21.67° C | 99% | 1007.3 hPa | 0 mm | 0 m/s | 0 W/m² | - |
| 1778044982 | 21.67° C | 99% | 1007.3 hPa | 0 mm | 0.89 m/s, 198° | 0 W/m² | - |
| 1778044679 | 21.67° C | 99% | 1007.2 hPa | 0 mm | 0.89 m/s, 195° | 0 W/m² | - |
| 1778044375 | 21.67° C | 99% | 1007.2 hPa | 0 mm | 0.89 m/s, 170° | 0 W/m² | - |
| 1778044073 | 21.67° C | 99% | 1007.2 hPa | 0 mm | 0.89 m/s, 201° | 0 W/m² | - |
| 1778043771 | 21.67° C | 99% | 1007.3 hPa | 0 mm | 1.34 m/s, 173° | 0 W/m² | - |
| 1778043467 | 21.67° C | 99% | 1007 hPa | 0 mm | 0.89 m/s, 165° | 0 W/m² | - |
| 1778043163 | 21.11° C | 99% | 1006.9 hPa | 0 mm | 0 m/s | 0 W/m² | - |
| 1778042860 | 21.11° C | 99% | 1007 hPa | 0 mm | 1.34 m/s, 173° | 0 W/m² | - |
| 1778042558 | 21.11° C | 99% | 1007 hPa | 0 mm | 0 m/s | 0 W/m² | - |
| 1778042255 | 21.11° C | 99% | 1007 hPa | 0 mm | 0 m/s | 0 W/m² | - |
| 1778041952 | 21.11° C | 99% | 1007 hPa | 0 mm | 0.45 m/s, 75° | 0 W/m² | - |
| 1778041651 | 21.11° C | 99% | 1007.6 hPa | 0 mm | 0.45 m/s, 70° | 0 W/m² | - |
| 1778041353 | 21.11° C | 99% | 1007.6 hPa | 0 mm | 0 m/s | 0 W/m² | - |
| 1778041047 | 21.11° C | 99% | 1007.6 hPa | 0 mm | 0 m/s | 0 W/m² | - |
| 1778040744 | 21.11° C | 99% | 1007.5 hPa | 0 mm | 0 m/s | 0 W/m² | - |
| 1778040441 | 21.11° C | 99% | 1007.3 hPa | 0 mm | 0 m/s | 0 W/m² | - |
| 1778040138 | 21.11° C | 99% | 1007.3 hPa | 0 mm | 0 m/s | 0 W/m² | - |
| 1778039835 | 21.11° C | 99% | 1007.3 hPa | 0 mm | 0 m/s | 0 W/m² | - |
| 1778039532 | 21.11° C | 99% | 1007 hPa | 0 mm | 0 m/s | 0 W/m² | - |
* Rain latest hour (hover to see other rain measurements)
** Current wind speed in m/s (hover to see current wind gust speed)